星链-30284 (STARLINK-30284 )

导读

STARLINK-30284是美国SpaceX星链互联网卫星星座的组网卫星,于2023年9月16日发射入轨,归属星链低轨互联网卫星项目。该卫星旨在为全球提供高速低延迟的宽带互联网服务,尤其覆盖偏远、网络基础设施匮乏区域,是星链大规模低轨星座组网计划中的一员,助力星链完成全球通信覆盖布局。

Basic Information
目录编号:
57877
目录名称:
STARLINK-30284
国际标识:
2023-144P
轨道中心:
EARTH
卫星名称:
星链-30284
卫星全名:
星链-30284 (STARLINK-30284 )
卫星状态:
在轨 (已飞行1091 天)
发射日期:
2023-09-16 UTC
国别 :
美国 (US)
星等 :
--
This satellite is enrolled in the Space Conjunction Data Service (SCDS) and the current flight risk assessment level is: No High Risk
Orbit Information
数据来源 国际轨道数据 AOE轨道数据
星历时间 2026-09-11T11:47:35+0800
13小时前
查看轨道信息
2026-09-06T07:00:00+0800
5天前
查看轨道信息
半长轴 6861.198km 6861.14km
偏心率 0.0001376 0.0001315
轨道倾角 43.001° 43.002°
近地点辐角 267.556° 262.042°
升交点赤经 281.132° 310.500°
平近点角 92.513° 269.808°
近地点 482.116km 482.1km
远地点 484.006km 483.906km
周期 94.267分钟 94.266分钟
每日圈数 15.275762 15.275957
Detailed Information
固有亮度:
5
最大亮度:
0.3
卫星平台:
Starlink v2.0 mini
覆盖范围:
全球
运营商:
太空探索技术公司
运营商所在国:
美国
制造商(研发单位):
太空探索技术公司
制造商所在国:
美国
使用方式:
暂无
Satellite Introduction
星链(Starlink)计划是由太空探索技术公司(SpaceX)提出的一个巨型低轨卫星互联网星座项目,计划在2019年至2024年间在太空搭建由约1.2万颗卫星组成的“星链”网络,其中1584颗将部署在地球上空550千米处的近地轨道,并从2020年开始工作。该卫星仍在工作。
2D Orbit Map
3D Orbit Map
Orbit Altitude Analysis Chart
Orbit Inclination Analysis Chart
Orbit Comprehensive Analysis Chart
View Comprehensive Chart
Conjunction Data List
Event ID Objects TCA Miss Dist (km) Collision Risk Probability Collision Risk Index (CRI) Action
CDM_260910-025505-787705-880722
2026-09-10T
02:55:54+0000
0.879 km
远距离
2.471374E-5 中风险 0.63
CDM_260914-040505-787706-340721
2026-09-14T
04:05:25+0000
2.704 km
极远距离
1.215674E-6 低风险 0.37
Miss Distance Evolution Trend with All Objects
Collision Probability Evolution Trend with All Objects